Date String (YYYY-MM-DD hh:mm:ss) UTC,Instrument flags,absolute air pressure of the measurement (hPa),sample flow rate (lpm),inlet stack bypass flow (lpm),air temperature of the measurement (°C),ambient temperature measured by the external sensor (°C),aerosol sample conditioner tube jacket temperature (°C),OPC LED temperature (°C),internal box temperature (°C),relative humidity of the measurement (%),span deviation,mass concentration of particles derived from Lorenz-Mie calculation of OPC scattering (μg/m³),mass concentration of particles derived from Lorenz-Mie calculation of OPC scattering (μg/m³),mass concentration of particles derived from Lorenz-Mie calculation of OPC scattering (μg/m³)
DateTimeUTC,F1_M11,P_M11,Q1_M11,Q2_M11,T1_M11,T2_M11,T3_M11,T4_M11,T5_M11,U1_M11,ZSPAN_M11,X0_M11,X2_M11,X1_M11
2024-01-05 01:00:00,SystemResetWarning,0824.9,5.00,000.00,019.4,018.8,000.0,027.7,020.6,15.9,0001.6,0017.81,0010.99,0010.21
2024-01-05 01:01:00,SystemResetWarning,0824.9,5.00,000.00,019.3,018.8,000.0,027.7,020.6,16.0,0001.5,0017.63,0010.97,0010.21
2024-01-05 01:02:00,SystemResetWarning,0824.9,5.00,000.00,019.3,018.8,000.0,027.7,020.6,16.0,0001.3,0017.91,0011.03,0010.24
2024-01-05 01:03:00,SystemResetWarning,0824.9,5.00,000.00,019.4,018.8,000.0,027.7,020.6,16.0,0001.4,0018.56,0011.06,0010.26
2024-01-05 01:04:00,SystemResetWarning,0824.9,4.99,000.00,019.4,018.8,000.0,027.7,020.6,16.0,0001.3,0018.60,0011.09,0010.28
2024-01-05 01:05:00,SystemResetWarning,0824.9,4.99,000.00,019.4,018.8,000.0,027.7,020.6,16.0,0001.6,0018.65,0011.13,0010.31
2024-01-05 01:06:00,SystemResetWarning,0824.9,5.00,000.00,019.3,018.8,000.0,027.7,020.6,16.0,0001.6,0018.69,0011.16,0010.34
2024-01-05 01:07:00,SystemResetWarning,0824.9,5.00,000.00,019.3,018.8,000.0,027.7,020.6,16.1,0001.8,0018.85,0011.24,0010.38
2024-01-05 01:08:00,SystemResetWarning,0824.9,5.00,000.00,019.4,018.8,000.0,027.7,020.6,16.1,0001.8,0018.99,0011.29,0010.40
2024-01-05 01:09:00,SystemResetWarning,0824.9,5.01,000.00,019.3,018.8,000.0,027.7,020.7,16.1,0001.8,0018.91,0011.29,0010.39
2024-01-05 01:10:00,SystemResetWarning,0824.9,5.01,000.00,019.3,018.8,000.0,027.7,020.7,16.1,0001.8,0018.93,0011.30,0010.41
2024-01-05 01:11:00,SystemResetWarning,0825.0,5.00,000.00,019.4,018.8,000.0,027.7,020.7,16.2,0001.9,0019.05,0011.34,0010.43
2024-01-05 01:12:00,SystemResetWarning,0825.0,5.00,000.00,019.4,018.8,000.0,027.7,020.7,16.2,0002.2,0018.86,0011.32,0010.46
2024-01-05 01:13:00,SystemResetWarning,0824.9,5.00,000.00,019.4,018.8,000.0,027.7,020.6,16.2,0002.5,0018.16,0011.24,0010.45
2024-01-05 01:14:00,SystemResetWarning,0824.9,5.00,000.00,019.4,018.8,000.0,027.7,020.7,16.3,0002.4,0017.53,0011.25,0010.46
2024-01-05 01:15:00,SystemResetWarning,0824.9,4.99,000.00,019.4,018.8,000.0,027.7,020.7,16.4,0002.6,0017.95,0011.29,0010.48
2024-01-05 01:16:00,SystemResetWarning,0824.9,5.00,000.00,019.4,018.8,000.0,027.7,020.6,16.4,0002.5,0017.93,0011.26,0010.48
2024-01-05 01:17:00,SystemResetWarning,0824.9,5.00,000.00,019.4,018.8,000.0,027.7,020.6,16.5,0002.7,0018.25,0011.29,0010.46
2024-01-05 01:18:00,SystemResetWarning,0824.9,4.99,000.00,019.4,018.8,000.0,027.7,020.7,16.5,0002.8,0018.11,0011.24,0010.45
2024-01-05 01:19:00,SystemResetWarning,0824.9,5.00,000.00,019.4,018.8,000.0,027.7,020.7,16.6,0002.8,0016.94,0011.20,0010.44
2024-01-05 01:20:00,SystemResetWarning,0824.9,5.00,000.00,019.4,018.8,000.0,027.7,020.7,16.6,0002.8,0017.23,0011.22,0010.48
2024-01-05 01:21:00,SystemResetWarning,0824.9,5.01,000.00,019.4,018.8,000.0,027.7,020.7,16.6,0002.9,0017.16,0011.21,0010.49
2024-01-05 01:22:00,SystemResetWarning,0824.9,5.01,000.00,019.4,018.8,000.0,027.7,020.7,16.7,0002.8,0017.34,0011.21,0010.50
2024-01-05 01:23:00,SystemResetWarning,0825.0,5.00,000.00,019.4,018.8,000.0,027.7,020.7,16.7,0002.8,0017.84,0011.20,0010.48
2024-01-05 01:24:00,SystemResetWarning,0825.0,5.00,000.00,019.4,018.8,000.0,027.7,020.7,16.8,0002.7,0018.27,0011.29,0010.49
2024-01-05 01:25:00,SystemResetWarning,0825.0,5.00,000.00,019.4,018.8,000.0,027.7,020.7,16.8,0002.7,0018.74,0011.32,0010.49
2024-01-05 01:26:00,SystemResetWarning,0825.0,5.00,000.00,019.4,018.8,000.0,027.7,020.7,16.8,0002.8,0018.46,0011.31,0010.48
2024-01-05 01:27:00,SystemResetWarning,0825.0,5.00,000.00,019.4,018.8,000.0,027.7,020.7,16.8,0002.5,0018.53,0011.31,0010.48
2024-01-05 01:28:00,SystemResetWarning,0825.0,5.00,000.00,019.4,018.8,000.0,027.7,020.7,16.9,0002.3,0018.57,0011.25,0010.47
2024-01-05 01:29:00,SystemResetWarning,0825.0,5.00,000.00,019.4,018.8,000.0,027.7,020.7,16.9,0002.3,0018.59,0011.22,0010.47
2024-01-05 01:30:00,SystemResetWarning,0825.0,5.00,000.00,019.4,018.7,000.0,027.7,020.6,17.0,0002.2,0018.47,0011.23,0010.48
2024-01-05 01:31:00,SystemResetWarning,0825.1,5.00,000.00,019.4,018.8,000.0,027.7,020.7,17.0,0002.2,0017.97,0011.22,0010.45
2024-01-05 01:32:00,SystemResetWarning,0825.0,5.00,000.00,019.4,018.8,000.0,027.7,020.7,17.0,0002.0,0018.94,0011.22,0010.43
2024-01-05 01:33:00,SystemResetWarning,0825.1,5.00,000.00,019.4,018.8,000.0,027.7,020.7,17.1,0001.9,0019.15,0011.17,0010.41
2024-01-05 01:34:00,SystemResetWarning,0825.1,5.00,000.00,019.4,018.8,000.0,027.7,020.7,17.1,0001.7,0018.38,0011.15,0010.39
2024-01-05 01:35:00,SystemResetWarning,0825.1,5.00,000.00,019.4,018.7,000.0,027.7,020.7,17.1,0001.5,0019.14,0011.14,0010.39
2024-01-05 01:36:00,SystemResetWarning,0825.1,5.00,000.00,019.4,018.7,000.0,027.7,020.6,17.1,0001.6,0020.06,0011.13,0010.38
2024-01-05 01:37:00,SystemResetWarning,0825.1,5.00,000.00,019.4,018.7,000.0,027.7,020.6,17.2,0001.5,0020.70,0011.14,0010.37
2024-01-05 01:38:00,SystemResetWarning,0825.1,5.00,000.00,019.4,018.7,000.0,027.7,020.6,17.2,0001.6,0021.66,0011.14,0010.37
2024-01-05 01:39:00,SystemResetWarning,0825.0,5.00,000.00,019.4,018.7,000.0,027.7,020.6,17.2,0001.7,0021.97,0011.14,0010.38
2024-01-05 01:40:00,SystemResetWarning,0825.0,5.00,000.00,019.4,018.7,000.0,027.7,020.6,17.3,0001.6,0021.84,0011.17,0010.39
2024-01-05 01:41:00,SystemResetWarning,0825.0,5.00,000.00,019.4,018.7,000.0,027.7,020.6,17.3,0001.5,0022.28,0011.15,0010.39
2024-01-05 01:42:00,SystemResetWarning,0825.0,5.00,000.00,019.4,018.7,000.0,027.7,020.6,17.3,0001.4,0022.44,0011.17,0010.41
2024-01-05 01:43:00,SystemResetWarning,0824.9,5.00,000.00,019.4,018.7,000.0,027.7,020.7,17.3,0001.6,0021.38,0011.16,0010.42
2024-01-05 01:44:00,SystemResetWarning,0824.9,5.00,000.00,019.4,018.7,000.0,027.7,020.6,17.3,0001.4,0020.97,0011.21,0010.45
2024-01-05 01:45:00,SystemResetWarning,0825.0,5.00,000.00,019.4,018.7,000.0,027.7,020.7,17.4,0001.6,0021.13,0011.23,0010.47
2024-01-05 01:46:00,SystemResetWarning,0825.0,5.00,000.00,019.4,018.7,000.0,027.7,020.7,17.4,0001.5,0020.39,0011.19,0010.46
2024-01-05 01:47:00,SystemResetWarning,0825.0,5.01,000.00,019.4,018.7,000.0,027.7,020.7,17.4,0001.4,0019.05,0011.18,0010.48
2024-01-05 01:48:00,SystemResetWarning,0824.9,5.01,000.00,019.4,018.7,000.0,027.7,020.6,17.4,0001.3,0018.74,0011.17,0010.49
2024-01-05 01:49:00,SystemResetWarning,0824.9,5.01,000.00,019.4,018.7,000.0,027.7,020.6,17.4,0001.4,0017.93,0011.14,0010.50
2024-01-05 01:50:00,SystemResetWarning,0824.9,5.00,000.00,019.4,018.7,000.0,027.7,020.6,17.4,0001.4,0017.67,0011.15,0010.51
2024-01-05 01:51:00,SystemResetWarning,0824.9,4.99,000.00,019.4,018.7,000.0,027.7,020.6,17.5,0001.5,0017.44,0011.13,0010.51
2024-01-05 01:52:00,SystemResetWarning,0824.9,5.00,000.00,019.4,018.7,000.0,027.7,020.6,17.5,0001.7,0017.28,0011.16,0010.52
2024-01-05 01:53:00,SystemResetWarning,0824.9,5.00,000.00,019.4,018.7,000.0,027.7,020.6,17.5,0001.7,0017.42,0011.18,0010.55
2024-01-05 01:54:00,SystemResetWarning,0824.9,5.00,000.00,019.4,018.7,000.0,027.7,020.7,17.5,0001.6,0017.71,0011.22,0010.55
2024-01-05 01:55:00,SystemResetWarning,0824.9,5.00,000.00,019.4,018.7,000.0,027.7,020.7,17.5,0001.8,0018.67,0011.22,0010.55
2024-01-05 01:56:00,SystemResetWarning,0824.9,5.00,000.00,019.4,018.7,000.0,027.7,020.7,17.5,0001.9,0018.77,0011.24,0010.57
2024-01-05 01:57:00,SystemResetWarning,0824.9,5.01,000.00,019.4,018.7,000.0,027.7,020.7,17.5,0002.0,0018.66,0011.24,0010.58
2024-01-05 01:58:00,SystemResetWarning,0825.0,5.00,000.00,019.4,018.7,000.0,027.7,020.7,17.5,0002.2,0018.84,0011.28,0010.60
2024-01-05 01:59:00,SystemResetWarning,0824.9,5.01,000.00,019.4,018.7,000.0,027.7,020.7,17.5,0002.1,0018.43,0011.26,0010.59
